Regional Weather Roundup
Issued by NWS Jackson, KY

Home | Current Version | Previous Version | Graphics & Text | Print | Product List | Glossary On
Versions: 1 2 3 4 5 6 7 8 9 10 11 12 13 14 15 16 17 18 19 20 21 22 23 24 25 26 27 28 29 30 31 32 33 34 35 36 37 38 39 40 41 42 43 44 45 46 47 48 49 50
000
ASUS43 KJKL 231110
RWRJKL

EAST KENTUCKY HOURLY WEATHER ROUNDUP
NATIONAL WEATHER SERVICE JACKSON KY
600 AM EST FRI FEB 23 2018

NOTE: "FAIR" INDICATES FEW OR NO CLOUDS BELOW 12,000 FEET WITH
NO SIGNIFICANT WEATHER AND/OR OBSTRUCTIONS TO VISIBILITY.

* THESE REPORTS ARE NOT UNDER NWS QUALITY CONTROL AND MAY NOT
  REPORT WEATHER SUCH AS PRECIPITATION AND FOG.

KYZ079-080-083-085-087-088-110-112-115-119-120-231200
...EASTERN KENTUCKY...

CITY           SKY/WX    TMP DP  RH WIND       PRES   REMARKS
JACKSON          N/A     58  55  90 S3        30.31F
LONDON           N/A     57  55  93 S5        30.31S
SOMERSET*        N/A     59  59 100 S6        30.31R
WILLIAMSBURG*    N/A     59  59 100 SE7       30.32S
MIDDLESBORO*     N/A     65  59  80 S8        30.35S
HARLAN APT*      N/A     54  52  94 CALM      30.36S
PIKE CO APT*     N/A     57  57 100 CALM      30.33F
BIG SANDY APT*   N/A     56  56 100 SW3       30.32F
MOREHEAD APT*  CLOUDY    52  50  93 SE7       30.29F
ASHLAND*         N/A     47  46  97 CALM      30.31F FOG
$$

KYZ035-036-041-042-044-050-067-078-099-231200
...CENTRAL KENTUCKY...

CITY           SKY/WX    TMP DP  RH WIND       PRES   REMARKS
MT STERLING*     N/A     54  54 100 CALM      30.27F
FLEMING/MASON* CLOUDY    49  49 100 E3        30.27F FOG
DANVILLE*        N/A     59  59 100 S8        30.27S
LEXINGTON      MOCLDY    60  56  86 S12       30.24F
FRANKFORT      CLOUDY    52  49  89 N7        30.23S FOG
LOUISVILLE     RAIN      51  51 100 SE3       30.23S FOG
LEBANON*         N/A     64  59  82 S15       30.24R
GLASGOW*       LGT RAIN  63  63 100 SW8       30.29R
BOWLING GREEN  HVY RAIN  62  61  96 S7        30.28R FOG
$$

KYZ091>093-OHZ055-061-077-WVZ005-015-034-035-042-231200
...SOUTHERN OHIO/WEST VIRGINIA...

CITY           SKY/WX    TMP DP  RH WIND       PRES   REMARKS
COVINGTON      RAIN      49  49 100 SE10      30.23F FOG
COLUMBUS       LGT RAIN  44  44 100 SE6       30.28F FOG
DAYTON         RAIN      46  46 100 SE16      30.21F VSB 1/2
WILMINGTON     LGT RAIN  47  47 100 SE6       30.26F FOG
HUNTINGTON     MOCLDY    47  45  93 E3        30.30F FOG
CHARLESTON       N/A     48  48 100 CALM      30.32S FOG
BECKLEY        MOCLDY    60  56  86 SE7       30.39S
BLUEFIELD        N/A     57  54  89 SE5       30.42S
LOGAN CO APT*    N/A     61  57  88 CALM      30.34S
$$

VAZ002-007-008-TNZ017-027-036-066-071-231200
...SOUTHWEST VIRGINIA/EAST TENNESSEE...

CITY           SKY/WX    TMP DP  RH WIND       PRES   REMARKS
WISE*            N/A     61  55  82 S7        30.40S
JONESVILLE*      N/A     50  50 100 CALM      30.40S
ABINGDON*        N/A     55  54  98 CALM      30.40S
BRISTOL          N/A     51  51 100 CALM      30.38S FOG
MORRISTOWN*    MOSUNNY   57  57 100 CALM      30.37R
SEVIERVILLE*   MOSUNNY   52  50  93 CALM      30.37S
KNOXVILLE      CLOUDY    56  56 100 NE3       30.35S
LAFOLLETTE*    CLOUDY    57  57 100 CALM      30.38S
OAK RIDGE      MOCLDY    58  58 100 CALM      30.37S
CROSSVILLE       N/A     61  57  87 VRB3      30.35S
NASHVILLE        N/A     57  55  93 CALM      30.30R
$$

...KEY TO REMARKS...
VSB - VISIBILITY IN MILES
WCI - WIND CHILL INDEX
HX  - HEAT INDEX

$$




USA.gov is the U.S. government's official web portal to all federal, state and local government web resources and services.